Imperial, CA

11:08 AM PDT on October 01, 2016 (GMT -0700)
Imperial County

Weather History for KIPL - January, 2013

Change the Weather History Date:

Friday, January 18, 2013

  Actual Average Record
Temperature  
Mean Temperature 57 °F -  
Max Temperature 73 °F 71 °F 89 °F (1971)
Min Temperature 41 °F 44 °F 30 °F (1960)
Degree Days  
Heating Degree Days 8    
Growing Degree Days 7 (Base 50)    
Moisture  
Dew Point 22 °F    
Average Humidity 31    
Maximum Humidity 45    
Minimum Humidity 12    
Precipitation  
Precipitation 0.00 in - - ()
Sea Level Pressure  
Sea Level Pressure 30.16 in    
Wind  
Wind Speed 4 mph (West)    
Max Wind Speed 9 mph    
Max Gust Speed -    
Visibility 10 miles    
Events      
Averages and records for this station are not official NWS values.
T = Trace of Precipitation, MM = Missing Value Source: NWS Daily Summary

Daily Weather History Graph

Daily Weather History Graph

Search for Another Location

Airport or City:

Trip Planner

Search our weather history database for the weather conditions in past years. The results will help you decide how hot, cold, wet, or windy it might be!

Date:

Astronomy

Jan. 18, 2013 Rise Set
Actual Time 6:44 AM PST 5:01 PM PST
Civil Twilight 6:17 AM PST 5:28 PM PST
Nautical Twilight 5:47 AM PST 5:58 PM PST
Astronomical Twilight 5:17 AM PST 6:28 PM PST
Moon 10:51 AM PST (1/18) No Moon Set
Length of Visible Light 11h 11m
Length of Day
10h 17m
Waxing Crescent, 48% of the Moon is Illuminated
Jan 18
Waxing Crescent
Jan 18
First Quarter
Jan 26
Full
Feb 3
Last Quarter
Feb 9
New

Hourly Weather History & Observations

Time (PST) Temp. Windchill Dew Point Humidity Pressure Visibility Wind Dir Wind Speed Gust Speed Precip Events Conditions
12:53 AM 43.0 °F 40.3 °F 21.0 °F 42% 30.18 in 10.0 mi WSW 4.6 mph - N/A   Clear
1:53 AM 44.1 °F 42.5 °F 21.0 °F 40% 30.18 in 10.0 mi WSW 3.5 mph - N/A   Clear
2:53 AM 43.0 °F 40.3 °F 21.9 °F 43% 30.17 in 10.0 mi West 4.6 mph - N/A   Clear
3:53 AM 41.0 °F 37.1 °F 19.9 °F 43% 30.17 in 10.0 mi West 5.8 mph - N/A   Clear
4:53 AM 43.0 °F 40.3 °F 19.0 °F 38% 30.17 in 10.0 mi WSW 4.6 mph - N/A   Clear
5:53 AM 42.1 °F 38.4 °F 21.0 °F 43% 30.17 in 10.0 mi WSW 5.8 mph - N/A   Clear
6:53 AM 41.0 °F 36.4 °F 21.0 °F 45% 30.19 in 10.0 mi West 6.9 mph - N/A   Clear
7:53 AM 45.0 °F 43.5 °F 24.1 °F 44% 30.21 in 10.0 mi West 3.5 mph - N/A   Clear
8:53 AM 54.0 °F - 25.0 °F 33% 30.23 in 10.0 mi West 3.5 mph - N/A   Clear
9:53 AM 62.1 °F - 21.9 °F 21% 30.23 in 10.0 mi West 3.5 mph - N/A   Clear
10:53 AM 66.9 °F - 19.0 °F 16% 30.21 in 10.0 mi WNW 3.5 mph - N/A   Clear
11:53 AM 71.1 °F - 19.0 °F 14% 30.17 in 10.0 mi WNW 5.8 mph - N/A   Clear
12:53 PM 72.0 °F - 17.1 °F 12% 30.14 in 10.0 mi NW 4.6 mph - N/A   Clear
1:53 PM 73.0 °F - 18.0 °F 12% 30.13 in 10.0 mi NNW 5.8 mph - N/A   Clear
2:53 PM 73.0 °F - 19.0 °F 13% 30.12 in 10.0 mi NW 3.5 mph - N/A   Clear
3:53 PM 72.0 °F - 21.0 °F 15% 30.12 in 10.0 mi Calm Calm - N/A   Clear
4:53 PM 66.9 °F - 26.1 °F 21% 30.11 in 10.0 mi WNW 3.5 mph - N/A   Clear
5:53 PM 59.0 °F - 23.0 °F 25% 30.12 in 10.0 mi Calm Calm - N/A   Clear
6:53 PM 55.9 °F - 24.1 °F 29% 30.13 in 10.0 mi Calm Calm - N/A   Clear
7:53 PM 54.0 °F - 27.0 °F 35% 30.14 in 10.0 mi Calm Calm - N/A   Clear
8:53 PM 48.0 °F - 27.0 °F 44% 30.14 in 8.0 mi West 4.6 mph - N/A   Clear
9:53 PM 46.0 °F 43.1 °F 25.0 °F 44% 30.15 in 10.0 mi WSW 5.8 mph - N/A   Clear
10:53 PM 46.9 °F - 23.0 °F 39% 30.15 in 10.0 mi West 6.9 mph - N/A   Clear
11:53 PM 44.1 °F 39.0 °F 23.0 °F 43% 30.14 in 10.0 mi West 9.2 mph - N/A   Clear